Regional Weather Roundup
Issued by NWS

Home | Current Version | Previous Version | Text Only | Print | Product List | Glossary Off
Versions: 1 2 3 4 5 6 7 8 9 10 11 12 13 14 15 16 17 18 19 20 21 22 23 24 25 26 27 28 29 30 31 32 33 34 35 36 37 38 39 40 41 42 43 44 45 46 47 48 49 50

000
ASUS43 KLMK 230702
RWRKY
KENTUCKY REGIONAL WEATHER ROUNDUP
NATIONAL WEATHER SERVICE LOUISVILLE KY
200 AM EST SUN NOV 23 2014

NOTE "FAIR" INDICATES FEW OR NO CLOUDS BELOW 12,000 FEET
WITH NO SIGNIFICANT WEATHER AND/OR OBSTRUCTIONS TO VISIBILITY.

KYZ001>023-026-027-061>063-070>075-230800-
WESTERN AND SOUTH CENTRAL KENTUCKY

CITY           SKY/WX    TMP DP  RH WIND       PRES   REMARKS
PADUCAH        CLEAR     52  42  69 SE7       29.92F
HENDERSON      CLOUDY    48  37  66 SE5       29.97F
OWENSBORO      PTCLDY    51  40  66 MISG      30.00F
HOPKINSVILLE   CLEAR     55  41  59 SE12      29.98F
BOWLING GREEN  MOCLDY    55  37  50 S7        30.03F
GLASGOW        NOT AVBL
$$

KYZ024-025-028>034-038-045-046-053-230800-
NORTH CENTRAL KENTUCKY

CITY           SKY/WX    TMP DP  RH WIND       PRES   REMARKS
LOUISVILLE/SDF CLOUDY    51  36  56 SE8       30.03F
LOUISVILLE/LOU CLOUDY    49  34  56 CALM      30.04F
FORT KNOX      CLOUDY    51  37  58 S10       30.02F
$$

KYZ035>037-039>044-047>052-055>060-089>105-230800-
NORTHEAST KENTUCKY

CITY           SKY/WX    TMP DP  RH WIND       PRES   REMARKS
LEXINGTON      CLOUDY    50  36  58 S8        30.07F
COVINGTON      CLOUDY    52  34  50 S8        30.04F
FRANKFORT      CLOUDY    48  36  63 SE6       30.05F
$$

KYZ054-064>069-076>088-106>120-230800-
SOUTHEAST KENTUCKY

CITY           SKY/WX    TMP DP  RH WIND       PRES   REMARKS
JACKSON        CLOUDY    51  29  42 VRB3      30.10F
LONDON         MOCLDY    46  32  58 SE3       30.10F
SOMERSET       NOT AVBL
MIDDLESBORO    NOT AVBL
MONTICELLO     PTSUNNY   52  37  56 S6        30.11F
$$



USA.gov is the U.S. government's official web portal to all federal, state and local government web resources and services.